North Wilkesboro, NC

11:20 AM EST on December 12, 2019 (GMT -0500)
Wilkes County

Weather History for KUKF - October, 2019

Change the Weather History Date:

Tuesday, October 29, 2019

  Actual Average Record
Temperature  
Mean Temperature 58 °F -  
Max Temperature 62 °F 68 °F 81 °F (1991)
Min Temperature 55 °F 37 °F 21 °F (1976)
Degree Days  
Heating Degree Days 6    
Growing Degree Days 8 (Base 50)    
Moisture  
Dew Point 58 °F    
Average Humidity 99    
Maximum Humidity 100    
Minimum Humidity 82    
Precipitation  
Precipitation 0.00 in - - ()
Sea Level Pressure  
Sea Level Pressure 30.27 in    
Wind  
Wind Speed 1 mph (ENE)    
Max Wind Speed 5 mph    
Max Gust Speed -    
Visibility 7 miles    
Events      
Averages and records for this station are not official NWS values.
T = Trace of Precipitation, MM = Missing Value Source: NWS Daily Summary

Daily Weather History Graph

Daily Weather History Graph

Search for Another Location

Airport or City:

Astronomy

Oct. 29, 2019 Rise Set
Actual Time 7:44 AM EDT 6:31 PM EDT
Civil Twilight 7:17 AM EDT 6:58 PM EDT
Nautical Twilight 6:47 AM EDT 7:28 PM EDT
Astronomical Twilight 6:17 AM EDT 7:58 PM EDT
Moon 9:14 AM EDT (10/29) 7:57 PM EDT (10/29)
Length of Visible Light 11h 40m
Length of Day
10h 47m
Waxing Crescent, 3% of the Moon is Illuminated
Oct 29
Waxing Crescent
Nov 4
First Quarter
Nov 12
Full
Nov 19
Last Quarter
Nov 26
New

Hourly Weather History & Observations

Time (EDT) Temp. Dew Point Humidity Pressure Visibility Wind Dir Wind Speed Gust Speed Precip Events Conditions
12:15 AM 55.4 °F 55.4 °F 100% 30.24 in 10.0 mi Calm Calm - N/A   Overcast
12:35 AM 59.0 °F 53.6 °F 82% 30.24 in 10.0 mi NNE 3.5 mph - N/A   Overcast
12:55 AM 57.2 °F 55.4 °F 94% 30.24 in 10.0 mi Calm Calm - N/A   Overcast
1:15 AM 59.0 °F 55.4 °F 88% 30.23 in 10.0 mi Calm Calm - N/A   Overcast
1:35 AM 55.4 °F 55.4 °F 100% 30.24 in 10.0 mi Calm Calm - N/A   Overcast
1:55 AM 57.2 °F 55.4 °F 94% 30.23 in 10.0 mi Calm Calm - N/A   Mostly Cloudy
2:15 AM 55.4 °F 55.4 °F 100% 30.23 in 10.0 mi Calm Calm - N/A   Overcast
2:35 AM 55.4 °F 55.4 °F 100% 30.23 in 10.0 mi Calm Calm - N/A   Overcast
2:55 AM 55.4 °F 55.4 °F 100% 30.23 in 10.0 mi Calm Calm - N/A   Overcast
3:15 AM 55.4 °F 55.4 °F 100% 30.23 in 10.0 mi Calm Calm - N/A   Overcast
3:35 AM 55.4 °F 55.4 °F 100% 30.23 in 10.0 mi Calm Calm - N/A   Overcast
3:55 AM 55.4 °F 55.4 °F 100% 30.23 in 10.0 mi Calm Calm - N/A   Overcast
4:15 AM 55.4 °F 55.4 °F 100% 30.22 in 10.0 mi Calm Calm - N/A   Overcast
4:35 AM 57.2 °F 57.2 °F 100% 30.22 in 10.0 mi Calm Calm - N/A   Overcast
4:55 AM 57.2 °F 57.2 °F 100% 30.23 in 10.0 mi Calm Calm - N/A   Overcast
5:15 AM 57.2 °F 57.2 °F 100% 30.23 in 10.0 mi Calm Calm - N/A   Overcast
5:35 AM 57.2 °F 57.2 °F 100% 30.24 in 10.0 mi Calm Calm - N/A   Overcast
5:55 AM 57.2 °F 57.2 °F 100% 30.24 in 10.0 mi Calm Calm - N/A   Overcast
6:15 AM 59.0 °F 57.2 °F 94% 30.25 in 10.0 mi Calm Calm - N/A   Overcast
6:35 AM 57.2 °F 57.2 °F 100% 30.25 in 10.0 mi East 3.5 mph - N/A   Overcast
6:55 AM 55.4 °F 55.4 °F 100% 30.25 in 3.0 mi Calm Calm - N/A   Overcast
7:15 AM 55.4 °F 55.4 °F 100% 30.25 in 2.0 mi Calm Calm - N/A   Overcast
7:35 AM 55.4 °F 55.4 °F 100% 30.25 in 2.0 mi NE 3.5 mph - N/A   Overcast
7:55 AM 55.4 °F 55.4 °F 100% 30.26 in 2.0 mi ENE 4.6 mph - N/A   Overcast
8:15 AM 55.4 °F 55.4 °F 100% 30.26 in 1.5 mi ENE 4.6 mph - N/A   Drizzle
8:35 AM 55.4 °F 55.4 °F 100% 30.27 in 2.5 mi Calm Calm - N/A   Overcast
8:55 AM 55.4 °F 55.4 °F 100% 30.28 in 3.0 mi East 3.5 mph - N/A   Overcast
9:15 AM 55.4 °F 55.4 °F 100% 30.28 in 4.0 mi Calm Calm - N/A   Overcast
9:35 AM 55.4 °F 55.4 °F 100% 30.29 in 1.8 mi Calm Calm - N/A   Overcast
9:55 AM 57.2 °F 57.2 °F 100% 30.30 in 1.0 mi Calm Calm - N/A   Overcast
10:15 AM 57.2 °F 57.2 °F 100% 30.30 in 1.2 mi East 3.5 mph - N/A   Overcast
10:35 AM 57.2 °F 57.2 °F 100% 30.30 in 1.0 mi ENE 3.5 mph - N/A   Overcast
10:55 AM 57.2 °F 57.2 °F 100% 30.30 in 0.8 mi Calm Calm - N/A   Overcast
11:15 AM 57.2 °F 57.2 °F 100% 30.31 in 1.0 mi East 3.5 mph - N/A   Overcast
11:35 AM 57.2 °F 57.2 °F 100% 30.31 in 1.0 mi East 3.5 mph - N/A   Overcast
11:55 AM 57.2 °F 57.2 °F 100% 30.31 in 1.2 mi East 3.5 mph - N/A   Overcast
12:15 PM 59.0 °F 59.0 °F 100% 30.31 in 2.5 mi NNE 4.6 mph - N/A   Overcast
12:35 PM 59.0 °F 59.0 °F 100% 30.31 in 1.8 mi Calm Calm - N/A   Overcast
12:55 PM 59.0 °F 59.0 °F 100% 30.30 in 3.0 mi NE 3.5 mph - N/A   Overcast
1:15 PM 59.0 °F 59.0 °F 100% 30.30 in 4.0 mi ENE 4.6 mph - N/A   Overcast
1:35 PM 59.0 °F 59.0 °F 100% 30.29 in 7.0 mi NE 3.5 mph - N/A   Overcast
1:55 PM 59.0 °F 59.0 °F 100% 30.28 in 5.0 mi Calm Calm - N/A   Overcast
2:15 PM 60.8 °F 60.8 °F 100% 30.27 in 7.0 mi Calm Calm - N/A   Overcast
2:35 PM 60.8 °F 60.8 °F 100% 30.27 in 5.0 mi Calm Calm - N/A   Overcast
2:55 PM 60.8 °F 60.8 °F 100% 30.27 in 7.0 mi Calm Calm - N/A   Overcast
3:15 PM 60.8 °F 60.8 °F 100% 30.27 in 7.0 mi Calm Calm - N/A   Overcast
3:35 PM 60.8 °F 60.8 °F 100% 30.27 in 7.0 mi ESE 3.5 mph - N/A   Overcast
3:55 PM 60.8 °F 60.8 °F 100% 30.27 in 10.0 mi SE 4.6 mph - N/A   Mostly Cloudy
4:15 PM 62.6 °F 60.8 °F 94% 30.27 in 10.0 mi Calm Calm - N/A   Overcast
4:35 PM 62.6 °F 60.8 °F 94% 30.27 in 10.0 mi ESE 3.5 mph - N/A   Overcast
4:55 PM 62.6 °F 60.8 °F 94% 30.27 in 10.0 mi ESE 3.5 mph - N/A   Overcast
5:15 PM 62.6 °F 60.8 °F 94% 30.27 in 10.0 mi Calm Calm - N/A   Mostly Cloudy
5:35 PM 62.6 °F 60.8 °F 94% 30.27 in 10.0 mi Calm Calm - N/A   Scattered Clouds
5:55 PM 60.8 °F 60.8 °F 100% 30.27 in 10.0 mi Calm Calm - N/A   Clear
6:15 PM 60.8 °F 60.8 °F 100% 30.28 in 10.0 mi Calm Calm - N/A   Mostly Cloudy
6:35 PM 60.8 °F 60.8 °F 100% 30.28 in 10.0 mi Calm Calm - N/A   Mostly Cloudy
6:55 PM 59.0 °F 59.0 °F 100% 30.29 in 10.0 mi Calm Calm - N/A   Mostly Cloudy
7:15 PM 59.0 °F 59.0 °F 100% 30.29 in 10.0 mi East 3.5 mph - N/A   Overcast
7:35 PM 59.0 °F 59.0 °F 100% 30.30 in 10.0 mi Calm Calm - N/A   Overcast
7:55 PM 59.0 °F 59.0 °F 100% 30.30 in 10.0 mi Calm Calm - N/A   Overcast
8:15 PM 59.0 °F 59.0 °F 100% 30.30 in 10.0 mi Calm Calm - N/A   Overcast
8:35 PM 59.0 °F 59.0 °F 100% 30.30 in 10.0 mi Calm Calm - N/A   Overcast
8:55 PM 59.0 °F 59.0 °F 100% 30.30 in 7.0 mi Calm Calm - N/A   Overcast
9:15 PM 59.0 °F 59.0 °F 100% 30.31 in 7.0 mi ENE 3.5 mph - N/A   Overcast
9:35 PM 59.0 °F 59.0 °F 100% 30.31 in 7.0 mi Calm Calm - N/A   Overcast
9:55 PM 59.0 °F 59.0 °F 100% 30.31 in 10.0 mi Calm Calm - N/A   Overcast
10:15 PM 59.0 °F 59.0 °F 100% 30.32 in 10.0 mi Calm Calm - N/A   Overcast
10:35 PM 59.0 °F 59.0 °F 100% 30.32 in 7.0 mi North 3.5 mph - N/A   Overcast
10:55 PM 57.2 °F 57.2 °F 100% 30.32 in 7.0 mi Calm Calm - N/A   Overcast
11:15 PM 59.0 °F 59.0 °F 100% 30.31 in 7.0 mi Calm Calm - N/A   Overcast
11:35 PM 59.0 °F 59.0 °F 100% 30.30 in 7.0 mi NE 3.5 mph - N/A   Overcast
11:55 PM 59.0 °F 59.0 °F 100% 30.30 in 5.0 mi Calm Calm - N/A   Overcast